Location: Beaurevoir
(49.9971°N, 3.3085°E)
Time: 06:07:45
(UTC+00:00)

PSLV R/B - Pass Details

Date: 23 May 2024
Orbit: 591 x 691 km, 97.9° (Epoch: 19 June)

Event Time Altitude Azimuth Distance (km) Brightness Sun altitude
Rises 00:18:20 0° 8° (N) 3,030 8.8 -18.9°
Reaches altitude 10° 00:20:41 10° 2° (N) 2,097 7.5 -18.9°
Maximum altitude 00:24:59 42° 292° (WNW) 932 4.5 -18.8°
Enters shadow 00:26:55 27° 240° (WSW) 1,246 4.7 -18.7°
